Vertical_Velocity
3 2 5 3 6 16 1 17 -13 -13 7 7 -16 8 -4 -24 12 9 -2 5 1 0 13 -5 -5 -10 12 -2 10 -16 17 2 -14 -1 3 4 -6 -8 -6 -9 -6 -2 5 -13
3 3 6 5 8 -2 20 2 4 -5 16 -13 -6 13 10 5 7 11 -6 -3 -3 10 7 -2 -5 -2 5 10 -2 -5 20 -22 -0 -6 -8 -2 -1 8 10 4 3 -12 6 4
1 4 2 9 4 9 10 15 -1 2 5 0 -11 1 -8 -13 9 7 -3 -5 5 4 10 -7 -5 -1 -9 -1 2 4 4 -2 -6 -16 1 3 -2 4 -1 -1 -4 4 -11 6
5 8 8 8 4 11 11 7 -7 -12 -25 -32 -1 11 4 10 -4 2 -4 -0 -17 1 -5 -0 -12 0 -9 9 2 0 1 4 -2 -9 -2 5 8 -2 2 7 -1 -3 3 -28
9 2 5 11 5 8 2 8 -14 -3 1 2 17 5 -16 -1 -4 0 -6 -4 19 12 1 9 1 13 -10 -6 7 -6 -2 -7 -2 6 3 -3 -0 -8 3 -3 -13 -3 3 -36
10 21 21 4 -9 0 -3 -4 -7 14 -4 0 13 -21 -5 -10 8 1 7 4 2 1 1 4 8 14 18 11 -4 -4 2 5 18 -1 -3 -4 -30 24 -2 -3 -6 1 -17 4
10 -12 -2 1 1 6 25 10 -3 13 -19 3 1 -3 4 1 -3 10 5 8 2 1 2 24 9 4 1 -8 -6 3 7 25 -5 -0 -2 -15 12 -1 3 0 -1 -2 0 0
5 5 2 -2 7 -3 3 38 12 23 7 -1 5 7 -2 3 19 14 4 26 4 11 4 12 5 0 12 10 10 11 20 3 35 28 6 2 -22 -10 2 7 8 1 -1 -1
3 5 1 5 43 6 11 4 -11 7 27 -7 9 10 14 28 18 5 2 2 -3 -2 2 1 -1 2 9 1 -0 1 6 13 3 4 -9 -13 8 3 6 2 -32 13 13 -2
12 6 13 -3 20 15 7 5 7 2 17 18 14 2 -3 4 1 13 5 15 8 4 7 2 7 5 7 3 4 0 -3 -12 -12 -7 -7 -26 5 5 -4 -4 18 -2 -5 0
3 8 6 9 8 12 14 11 19 7 14 10 10 10 7 6 9 25 17 4 0 5 0 -4 -0 -6 -7 -2 1 -2 3 2 -1 -1 -7 -61 20 18 -3 16 -26 -11 -5 -1
-4 -4 -7 -2 -2 -3 0 4 5 4 1 1 0 12 6 -2 -10 12 4 9 9 -4 -9 -6 -4 -13 -4 5 -12 -2 -9 -1 4 -4 -19 -2 -10 -1 -2 13 0 -2 -9 -5
0 -1 -0 -2 -7 -12 -8 -8 -14 -7 -6 4 6 -2 -9 -7 0 -7 -7 -16 -4 -3 -8 -5 -8 -8 4 -5 -2 2 -3 -4 -9 7 -6 4 -3 -2 1 -3 -1 -3 -3 -4
-0 -0 -2 -4 -3 -0 -0 4 -0 -3 5 1 -5 -6 -5 4 -4 4 -0 -7 7 -1 -5 -4 -3 4 6 -3 1 -7 2 0 0 -5 -10 8 -7 5 4 -3 -2 -6 -9 -5
1 1 -1 1 -1 -2 -2 -3 -2 1 -1 7 -0 11 -4 6 6 12 -8 2 3 -0 -3 4 2 2 -2 -2 -12 -11 24 11 1 -17 10 -16 -5 4 -3 -5 -3 -0 -5 -3
2 0 3 3 4 3 0 -5 -1 4 0 0 -4 -7 7 6 1 2 -7 -6 -3 8 -7 -2 -3 3 -9 -13 -16 15 15 7 -7 -12 -2 -14 1 -1 5 -4 5 -3 -8 -6
3 4 -0 -1 3 0 0 4 -1 -4 -1 -3 -4 1 7 -4 10 4 -7 5 7 -3 -9 -3 -0 -2 -13 -12 -10 47 -26 -1 -6 -1 -1 -8 13 -6 2 -4 1 -1 -3 0
0 1 3 4 3 2 5 -4 -2 5 5 -0 -3 1 1 4 -0 -1 -0 -2 -2 1 2 -1 -1 -7 -4 1 -5 1 12 -4 -8 -2 -13 -4 -1 -2 3 -9 -4 -0 6 11
0 -3 -5 -6 -3 -3 -6 -1 1 9 3 -6 -1 4 -1 -1 0 -4 -4 -5 -5 -7 -7 -18 -2 -4 -2 -0 -1 -1 -10 -8 -3 -8 -4 -1 4 -2 -3 -0 -0 0 1 0
-1 0 2 2 3 4 5 7 6 -2 -0 11 17 -4 0 -2 -12 -13 -1 -2 2 1 -6 -4 1 -3 3 -3 2 -7 -12 -6 -4 -3 -0 -0 -3 -3 -2 1 1 -3 -2 -1
2 1 1 1 2 3 2 3 5 6 7 1 -10 -9 -9 -5 0 6 14 8 -3 -10 -4 -0 -1 2 -3 -8 -8 -3 -3 -2 -1 -1 -1 -1 -2 1 3 2 1 -0 -1 2
-0 1 3 2 3 2 1 1 1 -0 -1 -1 0 1 4 5 5 2 -2 -1 -1 -1 -0 -3 -5 -5 -3 -3 -1 -4 -3 0 2 -0 -4 -1 -3 -4 -3 -2 -1 -2 2 6
0 2 2 2 1 1 1 -0 -1 -1 -0 1 0 -1 -2 -2 0 1 -0 -2 -2 -5 -4 -5 -0 -3 1 -0 -2 1 4 2 -0 -2 0 -2 1 0 -1 2 -2 0 -1 -2
1 -1 -2 -1 -1 -2 -2 0 -0 0 0 -0 0 0 -0 -0 -1 0 -2 0 -2 -2 -1 8 4 4 3 3 4 -1 -1 1 1 1 0 -1 -2 -0 -0 -0 0 2 -1 -1
-6 -3 -4 -2 -2 -1 0 0 0 -2 -0 -1 -1 0 -0 -1 -1 1 0 0 -1 6 16 4 -4 -4 -3 -2 -1 1 2 -1 -1 -1 1 4 3 2 1 1 1 -0 2 4
-2 -1 -3 -3 -0 0 0 -0 -1 -0 1 0 -0 1 0 0 -0 1 1 2 2 2 2 -0 -2 -2 -1 -1 -2 -0 -1 -1 0 1 -1 -1 -2 -1 0 0 2 4 4 4
-2 -4 -2 -2 -4 -1 -1 -1 0 -1 1 1 -2 -0 -0 1 2 4 0 0 2 2 -1 -3 -3 -1 -1 1 0 -2 -2 -2 -3 -3 -3 -2 -1 1 0 -0 -2 -1 -0 -1
Height
5408 5431 5451 5469 5486 5502 5512 5526 5533 5554 5564 5566 5572 5583 5589 5607 5620 5622 5626 5633 5641 5649 5655 5657 5659 5668 5676 5678 5681 5682 5691 5690 5693 5696 5697 5699 5699 5700 5698 5698 5702 5700 5698 5696
5394 5418 5437 5456 5470 5483 5500 5509 5522 5535 5543 5544 5560 5578 5578 5593 5602 5606 5612 5621 5629 5635 5643 5643 5650 5656 5664 5666 5669 5671 5675 5672 5678 5681 5685 5685 5685 5687 5688 5688 5687 5684 5685 5685
5382 5406 5426 5444 5457 5472 5483 5497 5504 5514 5523 5535 5550 5563 5570 5581 5589 5591 5598 5610 5618 5623 5627 5628 5639 5644 5649 5653 5656 5660 5661 5662 5663 5666 5672 5674 5673 5674 5673 5671 5670 5672 5674 5674
5376 5397 5415 5431 5445 5458 5469 5477 5487 5502 5509 5525 5541 5551 5560 5566 5573 5579 5589 5596 5606 5612 5615 5619 5626 5630 5634 5640 5645 5647 5648 5649 5650 5652 5657 5659 5659 5660 5659 5657 5657 5659 5662 5666
5373 5393 5407 5421 5435 5446 5455 5467 5480 5497 5510 5516 5529 5536 5544 5553 5560 5569 5575 5585 5595 5599 5605 5609 5615 5619 5622 5626 5630 5632 5633 5631 5636 5639 5642 5645 5647 5646 5643 5643 5644 5647 5647 5650
5376 5393 5407 5417 5429 5442 5444 5458 5474 5486 5497 5509 5515 5525 5537 5544 5552 5557 5564 5572 5578 5583 5592 5598 5601 5602 5606 5609 5613 5618 5621 5621 5623 5623 5626 5629 5631 5635 5632 5631 5631 5632 5631 5638
5386 5398 5407 5416 5430 5438 5447 5457 5468 5477 5485 5495 5505 5517 5527 5534 5541 5547 5552 5559 5564 5572 5577 5584 5585 5586 5590 5595 5599 5604 5607 5607 5607 5609 5611 5610 5622 5622 5620 5618 5618 5618 5619 5621
5388 5396 5404 5412 5421 5429 5439 5449 5462 5469 5476 5487 5497 5506 5515 5524 5527 5535 5540 5545 5554 5557 5563 5569 5570 5573 5576 5579 5585 5590 5593 5595 5596 5595 5598 5601 5607 5609 5610 5609 5608 5607 5607 5606
5389 5395 5403 5410 5417 5425 5435 5441 5451 5461 5471 5479 5490 5497 5505 5513 5516 5521 5525 5533 5538 5542 5548 5552 5554 5559 5565 5567 5572 5576 5579 5581 5584 5584 5584 5588 5602 5599 5598 5593 5595 5601 5595 5593
5386 5393 5399 5409 5415 5422 5429 5436 5447 5454 5463 5471 5476 5484 5490 5497 5504 5511 5514 5521 5522 5528 5533 5538 5543 5546 5551 5554 5560 5564 5566 5569 5570 5572 5571 5580 5593 5586 5578 5581 5588 5584 5582 5580
5386 5392 5399 5403 5409 5416 5423 5429 5438 5447 5453 5457 5465 5472 5479 5485 5490 5498 5502 5506 5508 5515 5520 5525 5529 5532 5539 5544 5548 5551 5554 5555 5557 5556 5557 5568 5579 5566 5562 5565 5561 5563 5566 5565
5386 5390 5394 5399 5404 5410 5417 5426 5433 5440 5446 5451 5455 5462 5468 5474 5478 5484 5489 5496 5500 5504 5509 5515 5518 5524 5528 5532 5534 5535 5537 5541 5543 5544 5548 5554 5555 5551 5545 5543 5542 5545 5548 5548
5384 5390 5396 5401 5404 5408 5414 5419 5426 5433 5439 5446 5451 5453 5460 5466 5471 5476 5480 5484 5488 5491 5497 5502 5507 5511 5517 5517 5522 5524 5524 5526 5527 5528 5533 5532 5533 5533 5530 5529 5529 5528 5530 5531
5381 5385 5389 5393 5398 5404 5412 5420 5425 5430 5436 5439 5443 5448 5453 5457 5461 5467 5468 5474 5478 5481 5485 5490 5494 5499 5500 5502 5507 5510 5510 5511 5513 5511 5515 5515 5520 5518 5515 5512 5512 5511 5512 5515
5378 5381 5384 5388 5392 5396 5401 5407 5413 5419 5426 5430 5435 5440 5444 5448 5453 5457 5459 5463 5466 5469 5473 5477 5481 5484 5486 5488 5491 5500 5499 5499 5493 5496 5498 5497 5503 5498 5495 5492 5492 5494 5495 5497
5372 5377 5382 5386 5390 5393 5397 5402 5408 5412 5416 5421 5424 5428 5434 5440 5445 5446 5449 5452 5457 5459 5463 5467 5470 5471 5473 5477 5482 5491 5485 5479 5478 5482 5480 5482 5488 5484 5482 5481 5482 5480 5478 5480
5371 5375 5379 5383 5386 5390 5394 5399 5404 5407 5411 5416 5419 5423 5425 5430 5435 5439 5443 5448 5449 5451 5455 5458 5461 5462 5463 5469 5477 5475 5465 5467 5468 5470 5470 5476 5474 5473 5468 5465 5465 5462 5461 5461
5368 5372 5375 5380 5383 5388 5391 5394 5398 5401 5406 5409 5414 5418 5423 5425 5428 5434 5437 5439 5442 5445 5449 5452 5454 5456 5458 5464 5461 5461 5460 5459 5460 5461 5460 5460 5457 5455 5454 5451 5449 5446 5443 5441
5368 5370 5373 5377 5381 5384 5387 5391 5395 5398 5403 5406 5410 5413 5416 5420 5425 5429 5432 5434 5437 5440 5443 5447 5449 5450 5452 5452 5452 5450 5448 5448 5448 5447 5448 5448 5448 5447 5444 5442 5440 5435 5427 5424
5368 5371 5374 5377 5380 5383 5386 5389 5390 5393 5397 5401 5404 5408 5414 5418 5421 5425 5427 5429 5431 5433 5437 5440 5442 5443 5443 5443 5443 5443 5442 5441 5440 5439 5440 5441 5441 5440 5439 5437 5436 5433 5429 5428
5371 5374 5377 5380 5383 5385 5387 5389 5392 5395 5398 5402 5405 5408 5411 5414 5418 5421 5424 5424 5426 5429 5434 5436 5437 5438 5439 5439 5440 5439 5439 5439 5438 5438 5439 5440 5440 5439 5438 5436 5435 5434 5432 5433
5373 5376 5379 5382 5384 5386 5388 5389 5392 5395 5398 5401 5404 5407 5410 5412 5415 5417 5419 5422 5425 5428 5431 5433 5434 5437 5437 5437 5438 5437 5437 5438 5439 5439 5439 5440 5439 5438 5437 5437 5436 5436 5436 5437
5375 5378 5381 5383 5385 5386 5387 5388 5391 5394 5396 5399 5401 5404 5406 5409 5412 5415 5417 5420 5423 5425 5429 5431 5434 5435 5436 5436 5437 5438 5438 5438 5438 5438 5439 5439 5439 5438 5438 5437 5437 5437 5438 5438
5375 5378 5380 5383 5384 5385 5386 5389 5392 5394 5397 5399 5401 5403 5406 5408 5411 5413 5416 5418 5421 5424 5427 5430 5431 5433 5434 5435 5435 5436 5436 5436 5436 5437 5438 5437 5437 5437 5437 5436 5436 5436 5436 5437
5374 5377 5380 5382 5385 5385 5387 5390 5392 5394 5397 5399 5401 5404 5407 5409 5411 5413 5415 5417 5420 5423 5425 5427 5429 5431 5432 5432 5432 5433 5434 5434 5433 5434 5434 5434 5434 5434 5434 5434 5434 5434 5434 5434
5374 5377 5379 5382 5384 5386 5388 5390 5393 5395 5397 5400 5401 5404 5407 5409 5411 5413 5415 5417 5419 5422 5424 5426 5427 5428 5428 5428 5429 5429 5429 5430 5430 5431 5431 5431 5431 5431 5431 5431 5431 5430 5430 5430
5372 5375 5377 5380 5382 5385 5388 5390 5393 5396 5398 5399 5401 5404 5407 5410 5412 5414 5415 5417 5420 5422 5423 5424 5425 5425 5425 5425 5425 5425 5426 5426 5426 5427 5427 5427 5426 5426 5425 5425 5426 5426 5426 5426